星链-31137 (STARLINK-31137 )

导读

STARLINK-31137是美国太空探索技术公司SpaceX星链Starlink项目的卫星,于2023年12月29日发射。星链计划计划部署超4万颗近地轨道卫星,旨在为全球提供低时延高速互联网服务。该卫星属于星座组网部分,采用氪离子推进、自主碰撞规避等技术,助力实现全球无缝覆盖的宽带接入,推动星链全球互联网络的进一步完善。

基本信息
目录编号:
58686
目录名称:
STARLINK-31137
国际标识:
2023-211V
轨道中心:
EARTH
卫星名称:
星链-31137
卫星全名:
星链-31137 (STARLINK-31137 )
卫星状态:
在轨 (已飞行902 天)
发射日期:
2023-12-29 UTC
国别 :
美国 (US)
星等 :
--
轨道信息
数据来源 国际轨道数据
星历时间: 2026-06-15T20:13:34+0800
2天前
查看轨道信息
半长轴: 6861.218km
偏心率: 0.000117
轨道倾角: 42.998°
近地点辐角 254.466°
升交点赤经 252.950°
平近点角 105.606°
近地点: 482.278km
远地点: 483.884km
周期: 94.267分钟
每日圈数: 15.275694
详细信息
固有亮度:
5
最大亮度:
0.3
卫星平台:
Starlink v2.0 mini
覆盖范围:
全球
运营商:
太空探索技术公司
运营商所在国:
美国
制造商(研发单位):
太空探索技术公司
制造商所在国:
美国
使用方式:
暂无
卫星简介
星链(Starlink)计划是由太空探索技术公司(SpaceX)提出的一个巨型低轨卫星互联网星座项目,计划在2019年至2024年间在太空搭建由约1.2万颗卫星组成的“星链”网络,其中1584颗将部署在地球上空550千米处的近地轨道,并从2020年开始工作。该卫星仍在工作。
2D轨道图
3D轨道图
轨道高度分析图
轨道倾角分析图
轨道综合分析图
查看轨道综合分析图